Regional Weather Roundup
Issued by NWS State College, PA

Home | Current Version | Previous Version | Graphics & Text | Print | Product List | Glossary Off
Versions: 1 2 3 4 5 6 7 8 9 10 11 12 13 14 15 16 17 18 19 20 21 22 23 24 25 26 27 28 29 30 31 32 33 34 35 36 37 38 39 40 41 42 43 44 45 46 47 48 49 50

000
ASUS41 KCTP 250003
RWRCTP

REGIONAL WEATHER ROUNDUP
NATIONAL WEATHER SERVICE STATE COLLEGE PA
800 PM EDT SAT SEP 24 2016

Note: "fair" indicates few or no clouds below 12,000 feet with no
significant weather and/or obstructions to visibility.

* = STATION THAT DOES NOT REPORT PRECIPITATION /E.G. RAIN...SNOW...ETC/
    THUNDER OR FOG.

PAZ002>004-007>009-013>016-020>023-029>032-250100-
WESTERN PENNSYLVANIA

CITY           SKY/WX    TMP DP  RH WIND       PRES   REMARKS
ERIE           CLEAR     58  46  64 E7        30.21S
MEADVILLE      CLEAR     54  45  71 N6        30.20S
FRANKLIN*        N/A     55  46  71 N6        30.20S
NEW CASTLE     FAIR      61  52  72 N5        30.18S
BEAVER COUNTY  NOT AVBL
BUTLER*        CLEAR     63  48  59 CALM      30.20S
PITTSBURGH INT CLEAR     67  52  58 N8        30.16R
PITTSBURGH     CLEAR     66  51  58 N6        30.15S
INDIANA*       CLEAR     59  54  82 CALM      30.19S
LATROBE        NOT AVBL
WASHINGTON CO* CLEAR     63  52  67 N6        30.16S
$$

PAZ004>006-010>012-017>019-024>028-033>037-041-042-045-046-049>053-250100-
CENTRAL PENNSYLVANIA

CITY           SKY/WX    TMP DP  RH WIND       PRES   REMARKS
BRADFORD       CLEAR     53  45  74 CALM      30.21R
DUBOIS         CLEAR     59  44  57 N6        30.18R
CLEARFIELD     CLEAR     58  48  69 N6        30.17R
JOHNSTOWN      CLEAR     58  51  78 W5        30.18R
ALTOONA        CLEAR     63  48  58 CALM      30.16R
STATE COLLEGE  CLEAR     61  48  63 CALM      30.15S
WILLIAMSPORT   CLEAR     58  48  69 CALM      30.15R
SELINSGROVE    CLEAR     63  43  48 N5        30.15R
FT INDIANTOWN  CLEAR     57  48  70 NE2       30.13R
CAPITAL CITY   CLEAR     64  45  49 S3        30.13R
HARRISBURG     PTCLDY    63  46  54 CALM      30.12R
YORK           CLEAR     54  50  86 CALM      30.12R
$$

PAZ038>040-043-044-047-048-054-055-060>062-067>071-250100-
EASTERN PENNSYLVANIA

CITY           SKY/WX    TMP DP  RH WIND       PRES   REMARKS
SCRANTON       CLEAR     59  44  57 N6        30.16R
MOUNT POCONO   CLEAR     52  40  63 N6        30.16R
ALLENTOWN      CLEAR     61  44  53 N5        30.13R
QUAKERTOWN*    CLEAR     63  45  51 CALM      30.14R
READING        CLEAR     63  46  54 N5        30.12R
LANCASTER      CLEAR     62  49  62 N7        30.12R
COATESVILLE    CLEAR     63  48  59 N5        30.14R
POTTSTOWN      CLEAR     63  45  51 N8        30.14R
BLUE BELL      CLOUDY    57  54  88 CALM      30.11R
DOYLESTOWN     CLEAR     63  49  60 N5        30.12R
WILLOW GROVE   NOT AVBL
NORTH PHILA    PTCLDY    64  51  62 CALM      30.12R
PHILADELPHIA   PTCLDY    67  55  65 S7        30.11R
$$



USA.gov is the U.S. government's official web portal to all federal, state and local government web resources and services.